Regional Weather Roundup
Issued by NWS

Home | Current Version | Previous Version | Graphics & Text | Print | Product List | Glossary Off
Versions: 1 2 3 4 5 6 7 8 9 10 11 12 13 14 15 16 17 18 19 20 21 22 23 24 25 26 27 28 29 30 31 32 33 34 35 36 37 38 39 40 41 42 43 44 45 46 47 48 49 50

000
ASUS43 KMKX 170700
RWRWI

WISCONSIN REGIONAL WEATHER ROUNDUP
NATIONAL WEATHER SERVICE MILWAUKEE/SULLIVAN WI
200 AM CDT WED SEP 17 2014

NOTE: "FAIR" INDICATES FEW OR NO CLOUDS BELOW 12,000 FEET WITH NO
SIGNIFICANT WEATHER AND/OR OBSTRUCTIONS TO VISIBILITY.

WIZ001-002-006>008-014>016-023>028-170800-
NORTHWEST WISCONSIN

CITY           SKY/WX    TMP DP  RH WIND       PRES   REMARKS
SUPERIOR ARPT  CLEAR     47  44  87 SW6       29.95F
ASHLAND        CLOUDY    51  43  74 SW7       29.96F
HAYWARD        CLEAR     39  37  92 CALM      29.99F
SIREN          CLEAR     44  42  93 CALM      29.98F
RICE LAKE      FOG       41  40  97 CALM      30.02F VSB 1/4
LADYSMITH      CLEAR     42  40  95 CALM      30.03S
EAU CLAIRE     CLEAR     42  40  92 CALM      30.01S FOG
MENOMONIE      SUNNY     43  42  95 CALM      30.01F
NEW RICHMOND   CLEAR     46  42  86 SE3       29.99F
OSCEOLA        PTCLDY    44  44 100 CALM      30.01F
$$

WIZ003>005-009-010-017-018-170800-
NORTH CENTRAL WISCONSIN

CITY           SKY/WX    TMP DP  RH WIND       PRES   REMARKS
WOODRUFF       PTCLDY    43  41  91 CALM      30.00F
RHINELANDER    CLEAR     44  41  89 W5        30.01F
EAGLE RIVER    PTCLDY    44  43  97 CALM      30.00F
LAND O LAKES   CLOUDY    50  44  79 CALM      30.00F
PHILLIPS       FOG       40  40 100 CALM      30.00F VSB 3/4
TOMAHAWK       CLEAR     36  35  96 CALM      30.02F
MEDFORD        CLEAR     40  39  96 CALM      30.02S
MERRILL        MOCLDY    38  37  95 CALM      30.02S
$$

WIZ029-030-035-036-043>047-170800-
CENTRAL WISCONSIN

CITY           SKY/WX    TMP DP  RH WIND       PRES   REMARKS
WAUSAU         CLEAR     44  43  96 E5        30.02S
MOSINEE        CLEAR     41  41 100 CALM      30.04S
MARSHFIELD     CLEAR     44  41  89 CALM      30.03S
STEVENS POINT  CLEAR     39  37  94 CALM      30.04S
WAUPACA        CLEAR     45  43  95 CALM      30.04S
WAUTOMA        NOT AVBL
WISC RAPIDS    CLEAR     41  40  96 CALM      30.05S FOG
CAMP DOUGLAS   NOT AVBL
$$

WIZ011>013-019>022-031-037>040-048>050-170800-
NORTHEAST WISCONSIN

CITY           SKY/WX    TMP DP  RH WIND       PRES   REMARKS
ANTIGO         CLEAR     38  38  97 CALM      30.03S
STURGEON BAY   CLEAR     52  45  76 W5        30.02S
GREEN BAY      CLEAR     45  43  93 CALM      30.03S
MANITOWOC      NOT AVBL
APPLETON       NOT AVBL
CLINTONVILLE   CLEAR     43  41  93 CALM      30.03S
OSHKOSH        CLEAR     48  43  82 SW6       30.04S
$$

WIZ032>034-041-042-053>061-170800-
SOUTHWEST WISCONSIN

CITY           SKY/WX    TMP DP  RH WIND       PRES   REMARKS
LA CROSSE      CLEAR     49  46  90 SE6       30.04S
SPARTA         CLEAR     37  37  99 CALM      30.05S
VIROQUA        FAIR      51  44  77 S6        30.05S
BOSCOBEL       FOG       47  46  97 CALM      30.06F VSB<1/4
PRAIRIE DU CHI CLEAR     45  44  94 CALM      30.05F
PLATTEVILLE    FAIR      47  44  87 CALM      30.07F
$$

WIZ056-057-062-063-064-067-068-170800-
SOUTH CENTRAL WISCONSIN

CITY           SKY/WX    TMP DP  RH WIND       PRES   REMARKS
BARABOO/DELLS  CLEAR     42  41  94 S3        30.05F
LONE ROCK      MOCLDY    44  39  82 CALM      30.06F HAZE
WATERTOWN      CLEAR     40  40  99 CALM      30.06S
MADISON        CLEAR     43  41  93 CALM      30.06S
MIDDLETON        N/A     41  41 100 CALM      30.07S VSB 3/4
MONROE         CLEAR     50  43  76 SW7       30.06F
JANESVILLE     CLEAR     45  43  93 CALM      30.07R
$$

WIZ051-052-058>065-066-070>072-170800-
SOUTHEAST WISCONSIN

CITY           SKY/WX    TMP DP  RH WIND       PRES   REMARKS
MILWAUKEE      CLEAR     50  44  80 SW5       30.07S
WAUKESHA       CLEAR     45  43  93 S3        30.08S
MILWAUKEE/TIMM CLEAR     45  41  87 CALM      30.07S
RACINE         CLEAR     49  45  86 SW5       30.08F
BURLINGTON     FOG       38  38 100 CALM      30.07S VSB 1/2
KENOSHA        CLEAR     47  46  97 SW5       30.07F
FOND DU LAC    CLEAR     45  41  86 CALM      30.05S
SHEBOYGAN      CLEAR     45  42  89 CALM      30.05S
WEST BEND      CLEAR     41  37  87 CALM      30.06S
JUNEAU         CLEAR     44  41  91 CALM      30.07S
$$

LSZ147-162-170800-
LAKE SUPERIOR

STATION/POSITION TIME  TEMP    WIND        PRES    WAVE
                       AIR SEA DIR/SP/G            HT/PER
                 (UTC) (F)     (DEG/KT/KT) (MB)    (FT/S)
W MID LAKE BUOY  0550   47 47   80/ 10/ 12 1014.5F   2/ 4
DEVILS ISLAND    0600   54     280/  6/  8 1014.6S
PORT WING        0600   57     190/  7/ 10 1014.6
SAXON HARBOR     0640   57     200/  7/ 11 1014.2F
$$

LMZ867-665-643>646-170800-
LAKE MICHIGAN

STATION/POSITION TIME  TEMP    WIND        PRES    WAVE
                       AIR SEA DIR/SP/G            HT/PER
                 (UTC) (F)     (DEG/KT/KT) (MB)    (FT/S)
N MID LAKE BUOY  0550   59 59  270/ 16/ 19 1015.5F   2/ 5
NORTHPORT PIER   0600   57     300/  5/ 15 1016.3R
KEWAUNEE LAKESHO 0600   50     300/  5/  6 1015.7F
SHEBOYGAN LAKESH 0600   51 48  250/  9/  9 1017.9F
PORT WASHINGTON  0640   50     270/  6/  7 1018.3F
ATWATER BUOY     0600   56     210/  8/ 10 1019.1F
MILWAUKEE LAKESH 0600   54     230/  8/  9   N/A
S MID LAKE BUOY  0550   60 64  220/  6/  8 1018.6F   1
KENOSHA   LAKESH 0600   55     230/  7/ 10 1018.3S
$$

TC  - TEMPERATURE IN CELSIUS
VSB - VISIBILITY IN STATUTE MILES
WCI - WIND CHILL INDEX
HX  - HEAT INDEX



USA.gov is the U.S. government's official web portal to all federal, state and local government web resources and services.